Continental Highway — H9LY — position and weather

sailwx.info

Track history (hours):
 
Tides and Currents Weather Stations Pressure Air Temp Water Temp Dewpoint Dewpoint Depression Visibility Wind Speed Wind Dir Waves Ship Positions

Continental Highway

Last reported at 2016-May-01 05:32 UTC. Time now 2016-May-03 18:09 UTC.
Position N 39°22' W 072°32'.

Length 199.9 m; beam 32.2 m.

Type: Cargo ship. MMSI: 351223000.

Date/timePositionNaut miles runAvg speedWind from/ knotsBaromVisibWave heightAir tempDewpointWater temp
2016-May-01 05:32N 39°22' W 072°32'1817.1
2016-May-01 04:31N 39°35' W 072°48'1718.1
2016-May-01 03:33N 39°47' W 073°03'1716.5
2016-May-01 02:33N 39°59' W 073°18'1717.3
2016-May-01 01:33N 40°12' W 073°33'1111.3
2016-May-01 00:34N 40°21' W 073°42'9 9.4
2016-Apr-30 23:34N 40°28' W 073°50'1010.2
2016-Apr-30 22:34N 40°33' W 074°02'8 7.6
2016-Apr-30 21:34N 40°39' W 074°09'3 2.9
2016-Apr-30 20:32N 40°41' W 074°08'0 0.0
2016-Apr-30 19:32N 40°41' W 074°08'0 0.0
2016-Apr-30 18:26N 40°41' W 074°08'0 0.0
2016-Apr-30 17:29N 40°41' W 074°08'0 0.0
2016-Apr-30 16:32N 40°41' W 074°08'0 0.0
2016-Apr-30 15:32N 40°41' W 074°08'0 0.0
2016-Apr-30 14:32N 40°41' W 074°08'0 0.0
2016-Apr-30 13:32N 40°41' W 074°08'0 0.0
2016-Apr-30 12:23N 40°41' W 074°08'0 0.0
2016-Apr-30 11:32N 40°41' W 074°08'0 0.0
2016-Apr-30 10:32N 40°41' W 074°08'0 0.0
2016-Apr-30 09:29N 40°41' W 074°08'0 0.0
2016-Apr-30 08:32N 40°41' W 074°08'0 0.0
2016-Apr-30 07:32N 40°41' W 074°08'0 0.0
2016-Apr-30 06:32N 40°41' W 074°08'0 0.0
2016-Apr-30 05:32N 40°41' W 074°08'0 0.0
2016-Apr-30 04:32N 40°41' W 074°08'0 0.0
2016-Apr-30 03:32N 40°41' W 074°08'0 0.0
2016-Apr-30 02:32N 40°41' W 074°08'1 1.0
2016-Apr-30 01:33N 40°40' W 074°08'5 5.2
2016-Apr-30 00:33N 40°37' W 074°03'9 9.1
2016-Apr-29 23:33N 40°30' W 073°56'8 8.0
2016-Apr-29 22:33N 40°25' W 073°48'1510.3
2016-Apr-29 21:04N 40°10' W 073°44'1711.3
2016-Apr-29 19:33N 39°53' W 073°41'1614.6
2016-Apr-29 18:29N 39°37' W 073°42'61015.9
2016-Apr-28 04:05N 30°52' W 080°04'2616.5
2016-Apr-28 02:31N 30°39' W 080°30'1615.9
2016-Apr-28 01:31N 30°31' W 080°46'1515.7
2016-Apr-28 00:33N 30°24' W 081°01'1713.7
2016-Apr-27 23:19N 30°24' W 081°20'7 8.9
2016-Apr-27 22:32N 30°24' W 081°28'8 0.5
2016-Apr-27 07:32N 30°21' W 081°37'12 1.7
2016-Apr-27 00:19N 30°24' W 081°24'9 9.7
2016-Apr-26 23:25N 30°20' W 081°14'26514.1
2016-Apr-26 04:33N 26°12' W 079°28'1817.6
2016-Apr-26 03:34N 25°55' W 079°28'  
2016-Apr-22 08:18N 08°54' W 079°28'0 0.0
2016-Apr-21 07:21N 08°54' W 079°28'2 1.2
2016-Apr-21 05:33N 08°52' W 079°30'  
Track history (hours):
 
Tides and Currents Weather Stations Pressure Air Temp Water Temp Dewpoint Dewpoint Depression Visibility Wind Speed Wind Dir Waves Ship Positions

Continental Highway

Last reported at 2016-May-01 05:32 UTC. Time now 2016-May-03 18:09 UTC.
Position N 39°22' W 072°32'.

Length 199.9 m; beam 32.2 m.

Type: Cargo ship. MMSI: 351223000.

Date/timePositionNaut miles runAvg speedWind from/ knotsBaromVisibWave heightAir tempDewpointWater temp
2016-May-01 05:32N 39°22' W 072°32'1817.1
2016-May-01 04:31N 39°35' W 072°48'1718.1
2016-May-01 03:33N 39°47' W 073°03'1716.5
2016-May-01 02:33N 39°59' W 073°18'1717.3
2016-May-01 01:33N 40°12' W 073°33'1111.3
2016-May-01 00:34N 40°21' W 073°42'9 9.4
2016-Apr-30 23:34N 40°28' W 073°50'1010.2
2016-Apr-30 22:34N 40°33' W 074°02'8 7.6
2016-Apr-30 21:34N 40°39' W 074°09'3 2.9
2016-Apr-30 20:32N 40°41' W 074°08'0 0.0
2016-Apr-30 19:32N 40°41' W 074°08'0 0.0
2016-Apr-30 18:26N 40°41' W 074°08'0 0.0
2016-Apr-30 17:29N 40°41' W 074°08'0 0.0
2016-Apr-30 16:32N 40°41' W 074°08'0 0.0
2016-Apr-30 15:32N 40°41' W 074°08'0 0.0
2016-Apr-30 14:32N 40°41' W 074°08'0 0.0
2016-Apr-30 13:32N 40°41' W 074°08'0 0.0
2016-Apr-30 12:23N 40°41' W 074°08'0 0.0
2016-Apr-30 11:32N 40°41' W 074°08'0 0.0
2016-Apr-30 10:32N 40°41' W 074°08'0 0.0
2016-Apr-30 09:29N 40°41' W 074°08'0 0.0
2016-Apr-30 08:32N 40°41' W 074°08'0 0.0
2016-Apr-30 07:32N 40°41' W 074°08'0 0.0
2016-Apr-30 06:32N 40°41' W 074°08'0 0.0
2016-Apr-30 05:32N 40°41' W 074°08'0 0.0
2016-Apr-30 04:32N 40°41' W 074°08'0 0.0
2016-Apr-30 03:32N 40°41' W 074°08'0 0.0
2016-Apr-30 02:32N 40°41' W 074°08'1 1.0
2016-Apr-30 01:33N 40°40' W 074°08'5 5.2
2016-Apr-30 00:33N 40°37' W 074°03'9 9.1
2016-Apr-29 23:33N 40°30' W 073°56'8 8.0
2016-Apr-29 22:33N 40°25' W 073°48'1510.3
2016-Apr-29 21:04N 40°10' W 073°44'1711.3
2016-Apr-29 19:33N 39°53' W 073°41'1614.6
2016-Apr-29 18:29N 39°37' W 073°42'61015.9
2016-Apr-28 04:05N 30°52' W 080°04'2616.5
2016-Apr-28 02:31N 30°39' W 080°30'1615.9
2016-Apr-28 01:31N 30°31' W 080°46'1515.7
2016-Apr-28 00:33N 30°24' W 081°01'1713.7
2016-Apr-27 23:19N 30°24' W 081°20'7 8.9
2016-Apr-27 22:32N 30°24' W 081°28'8 0.5
2016-Apr-27 07:32N 30°21' W 081°37'12 1.7
2016-Apr-27 00:19N 30°24' W 081°24'9 9.7
2016-Apr-26 23:25N 30°20' W 081°14'26514.1
2016-Apr-26 04:33N 26°12' W 079°28'1817.6
2016-Apr-26 03:34N 25°55' W 079°28'  
2016-Apr-22 08:18N 08°54' W 079°28'0 0.0
2016-Apr-21 07:21N 08°54' W 079°28'2 1.2
2016-Apr-21 05:33N 08°52' W 079°30'  

Dump ship's entire track history